[[{"header":{"parameterUnit":"m.s-1","parameterCategory":1,"la1":30.2991,"la2":30.254,"lo1":-89.0895,"lo2":-89.0444,"dy":0.0017,"dx":0.0017,"nx":28,"ny":28,"refTime":"2025-08-02T21:00:00:Z","depth":0,"parameterNumber":2,"parameterNumberName":"U-component_of_WINDS"},"data":[0,0,0,0,0,0,0,0,0,0,0,0,0,0,0,0,0,0,0,0,0,0,0,0,0,0,0,0,0,0,0,0,0,0,0,0,0,0,0,0,0,0,0,0,0,0,0,0,0,0,0,0,0,0,0,0,0,0,1.827,1.827,0,1.8318,1.8319,1.8319,1.8349,1.8349,1.8349,1.835,1.8393,1.8393,1.8394,0,0,0,0,0,0,0,0,0,0,0,0,0,1.8196,1.8197,1.8269,1.827,1.8271,1.8318,1.8319,1.832,1.8349,1.8349,1.8349,1.835,1.8392,1.8393,1.8395,0,0,0,0,0,0,0,0,0,0,0,0,0,1.8234,1.8197,1.8269,1.8291,1.8294,1.8318,1.8319,1.832,1.8349,1.8349,1.835,1.835,1.8392,1.8393,1.8395,1.8399,0,0,1.8399,1.84,0,0,0,0,0,0,0,0,1.8232,1.8237,1.8288,1.829,1.8293,1.8328,1.8309,1.8346,1.8349,1.8328,1.835,1.835,1.837,1.8374,1.8382,1.8401,1.8403,1.8399,1.84,1.8401,1.8401,0,0,0,0,0,0,0,1.8229,1.8235,1.8289,1.8288,1.8291,1.8297,1.8303,1.8316,1.8347,1.833,1.8332,1.8338,1.8372,1.838,1.8383,1.8403,1.8399,1.8401,1.8402,1.8402,1.8428,1.8428,0,0,0,0,0,0,1.8224,1.8232,1.8287,1.829,1.8263,1.8298,1.8304,1.8316,1.8347,1.8352,1.8337,1.8339,1.8378,1.8381,1.8385,1.8392,1.8401,1.8402,1.8403,1.8428,1.8428,1.8428,0,0,0,0,0,0,1.8222,1.8229,1.8285,1.8262,1.827,1.8299,1.8312,1.8317,1.8326,1.8353,1.8358,1.8341,1.8378,1.8383,1.8396,1.8394,1.8403,1.8404,1.8428,1.8428,1.8428,1.8406,0,0,0,0,0,0,1.822,1.8228,1.8231,1.8262,1.8271,1.8297,1.8312,1.8318,1.8329,1.8332,1.8358,1.8362,1.8379,1.8393,1.8397,1.8396,1.8405,1.8429,1.8428,1.8428,1.8407,1.8405,1.8403,0,0,0,0,0,1.8217,1.8221,1.8231,1.8237,1.8276,1.8297,1.8301,1.8323,1.8329,1.8332,1.8349,1.8361,1.8394,1.8394,1.8399,1.8398,1.8429,1.8428,1.8428,1.8407,1.8405,1.8403,0,0,0,0,0,0,1.8186,1.8225,1.8237,1.8251,1.8271,1.8302,1.8305,1.8319,1.8335,1.8337,1.836,1.8366,1.8376,1.8388,1.8389,1.8404,1.8413,1.8413,1.8395,1.8393,1.8391,1.8388,1.8407,0,0,0,0,0,1.8181,1.8197,1.823,1.8239,1.8249,1.8275,1.8285,1.83,1.832,1.8328,1.8346,1.8363,1.8378,1.8386,1.8401,1.8409,1.8414,1.8411,1.8409,1.8407,1.8407,1.8412,1.841,1.8426,1.8426,1.8426,0,0,1.817,1.8194,1.8202,1.8233,1.825,1.8265,1.8282,1.8296,1.8306,1.8329,1.8343,1.8357,1.8378,1.8389,1.8394,1.8399,1.8404,1.8406,1.8405,1.8406,1.8411,1.841,1.8408,1.8426,1.8426,1.8426,0,0,1.8158,1.8178,1.8188,1.8206,1.8232,1.825,1.8253,1.8282,1.8294,1.8309,1.8327,1.8338,1.8362,1.8376,1.8387,1.8382,1.8393,1.8386,1.8375,1.838,1.8379,1.8378,1.8376,1.8375,1.8385,1.8385,1.8385,0,1.814,1.8165,1.8191,1.8205,1.8218,1.8243,1.8253,1.8267,1.8296,1.8303,1.8309,1.8341,1.8356,1.8371,1.837,1.8378,1.838,1.8382,1.8377,1.8377,1.8376,1.8374,1.8373,1.8384,1.8384,1.8384,1.8385,0,1.8141,1.8158,1.8163,1.8194,1.8207,1.8219,1.8245,1.8255,1.827,1.8286,1.8301,1.8321,1.8341,1.8345,1.8358,1.8362,1.8364,1.8373,1.8382,1.8373,1.8372,1.8371,1.8383,1.8383,1.8383,1.8384,0,0,1.8108,1.8156,1.8157,1.8172,1.8204,1.8216,1.8228,1.825,1.8258,1.8277,1.8287,1.8308,1.8318,1.8329,1.8344,1.8348,1.8343,1.8357,1.8358,1.8353,1.8348,1.834,1.8339,1.8352,1.8352,1.8352,1.8346,0,1.81,1.8127,1.8152,1.8168,1.8183,1.8208,1.8219,1.8239,1.8255,1.8269,1.8286,1.8301,1.8312,1.832,1.8325,1.8343,1.8342,1.8343,1.8359,1.836,1.8353,1.8338,1.833,1.8324,1.8346,1.8346,1.8346,0,1.8093,1.8115,1.8134,1.8167,1.8174,1.8183,1.8206,1.822,1.8242,1.8254,1.8268,1.8285,1.8297,1.8306,1.8323,1.8323,1.8331,1.8341,1.8341,1.8342,1.8351,1.8338,1.8322,1.8321,1.8345,1.8345,1.8345,0,1.8067,1.81,1.8117,1.8129,1.8167,1.8173,1.8188,1.8212,1.8224,1.8242,1.825,1.8269,1.8279,1.8293,1.8313,1.8318,1.8328,1.8338,1.8336,1.8335,1.8336,1.8335,1.832,1.8342,1.8342,1.8342,1.8342,0,1.8054,1.8064,1.8106,1.8115,1.8128,1.8156,1.8166,1.8184,1.8205,1.8217,1.8239,1.8249,1.8276,1.8289,1.8305,1.8316,1.8321,1.8329,1.8333,1.8327,1.8326,1.8331,1.8332,1.8342,1.8342,1.8342,1.8342,0,1.8026,1.8054,1.8073,1.8109,1.8118,1.8126,1.8155,1.8165,1.8184,1.8199,1.8204,1.8232,1.8249,1.8271,1.8294,1.8305,1.8314,1.832,1.8307,1.8309,1.8306,1.8305,1.8292,1.8292,1.8315,1.8315,1.8315,0,1.8015,1.8024,1.8063,1.8074,1.809,1.8108,1.8121,1.8149,1.8161,1.8189,1.8195,1.8214,1.8231,1.8256,1.8277,1.8295,1.8301,1.8296,1.8304,1.8298,1.8301,1.8299,1.83,1.8293,1.8293,1.8292,1.8292,0,1.7993,1.8008,1.8028,1.8053,1.8069,1.809,1.811,1.8118,1.815,1.8162,1.8182,1.8195,1.822,1.8238,1.8259,1.8273,1.8287,1.829,1.829,1.8283,1.8275,1.8279,1.83,1.829,1.829,1.829,1.829,1.829,1.7973,1.7983,1.8012,1.8034,1.8054,1.8074,1.8085,1.8107,1.8124,1.8149,1.8164,1.8182,1.8205,1.8235,1.8248,1.8262,1.8267,1.8268,1.8268,1.8267,1.8265,1.8274,1.8265,1.8266,1.8266,1.8266,1.8266,0,1.7952,1.7973,1.7993,1.8024,1.8041,1.8057,1.8082,1.8094,1.8111,1.8133,1.815,1.8172,1.819,1.8214,1.8233,1.8239,1.8246,1.8243,1.8242,1.8245,1.8259,1.8257,1.8237,1.8237,1.8237,1.8237,1.8237,1.8237,1.7943,1.7961,1.7979,1.8007,1.8027,1.8048,1.806,1.8078,1.8096,1.8121,1.8137,1.8154,1.8176,1.8198,1.8215,1.8221,1.8227,1.8221,1.8229,1.8242,1.8244,1.8246,1.8244,1.8223,1.8223,1.8215,1.8214,1.8214]},{"header":{"parameterUnit":"m.s-1","parameterCategory":1,"la1":30.2991,"la2":30.254,"lo1":-89.0895,"lo2":-89.0444,"dy":0.0017,"dx":0.0017,"nx":28,"ny":28,"refTime":"2025-08-02T21:00:00:Z","depth":0,"parameterNumber":3,"parameterNumberName":"V-component_of_WINDS"},"data":[0,0,0,0,0,0,0,0,0,0,0,0,0,0,0,0,0,0,0,0,0,0,0,0,0,0,0,0,0,0,0,0,0,0,0,0,0,0,0,0,0,0,0,0,0,0,0,0,0,0,0,0,0,0,0,0,0,0,0.1447,0.1448,0,0.1563,0.1565,0.1566,0.1608,0.1607,0.1607,0.1606,0.1724,0.1728,0.1731,0,0,0,0,0,0,0,0,0,0,0,0,0,0.1256,0.1259,0.1446,0.1448,0.1449,0.1563,0.1565,0.1566,0.1608,0.1607,0.1607,0.1606,0.1723,0.1727,0.1732,0,0,0,0,0,0,0,0,0,0,0,0,0,0.1352,0.126,0.1446,0.1484,0.1488,0.1563,0.1565,0.1567,0.1608,0.1607,0.1606,0.1606,0.1722,0.1727,0.1732,0.1777,0,0,0.1748,0.1751,0,0,0,0,0,0,0,0,0.1347,0.1359,0.1477,0.1481,0.1486,0.157,0.1541,0.1637,0.1608,0.1562,0.1606,0.1606,0.1673,0.1683,0.1706,0.1783,0.1788,0.1749,0.1752,0.1754,0.1756,0,0,0,0,0,0,0,0.134,0.1354,0.1493,0.1478,0.1484,0.1494,0.1507,0.1559,0.162,0.1566,0.157,0.1583,0.1676,0.1701,0.1709,0.179,0.1749,0.1753,0.1757,0.1759,0.1906,0.1907,0,0,0,0,0,0,0.1327,0.1349,0.1489,0.1496,0.1414,0.1498,0.1512,0.1544,0.1619,0.163,0.1583,0.1584,0.1692,0.1703,0.1713,0.177,0.1754,0.1759,0.1762,0.1906,0.1907,0.1907,0,0,0,0,0,0,0.1323,0.134,0.1484,0.1423,0.1442,0.1502,0.1537,0.1547,0.1571,0.1632,0.1643,0.1598,0.1692,0.1706,0.1761,0.1775,0.1762,0.1766,0.1905,0.1906,0.1907,0.1884,0,0,0,0,0,0,0.1318,0.1338,0.1357,0.1423,0.1446,0.1531,0.1538,0.1549,0.1581,0.1583,0.1649,0.1659,0.1693,0.1752,0.1766,0.1782,0.1771,0.1904,0.1905,0.1907,0.1884,0.1884,0.1884,0,0,0,0,0,0.1311,0.1346,0.1358,0.1374,0.147,0.1531,0.1544,0.1582,0.1582,0.16,0.1639,0.1657,0.177,0.1758,0.1773,0.1791,0.1903,0.1905,0.1907,0.1884,0.1884,0.1884,0,0,0,0,0,0,0.128,0.1356,0.1369,0.1427,0.1472,0.1538,0.1564,0.1582,0.1628,0.1629,0.1674,0.1688,0.1739,0.177,0.1755,0.1837,0.1838,0.1843,0.1815,0.1816,0.1816,0.1808,0.1775,0,0,0,0,0,0.128,0.1324,0.1387,0.1432,0.1454,0.1504,0.1533,0.1558,0.1606,0.1626,0.1669,0.1714,0.176,0.179,0.1835,0.1888,0.1902,0.1907,0.1907,0.1907,0.1911,0.1939,0.1942,0.1913,0.1913,0.1913,0,0,0.128,0.1327,0.1352,0.1427,0.1465,0.1508,0.1521,0.1567,0.1599,0.1633,0.1687,0.1719,0.1773,0.1826,0.1852,0.1854,0.1922,0.191,0.1909,0.1913,0.1941,0.1944,0.1946,0.1914,0.1914,0.1914,0,0,0.1303,0.1343,0.1385,0.1422,0.1479,0.1512,0.1521,0.1584,0.1606,0.1661,0.1687,0.1725,0.1804,0.184,0.1869,0.1902,0.192,0.1915,0.1918,0.1944,0.1947,0.1949,0.196,0.1963,0.1919,0.1919,0.1919,0,0.1297,0.1364,0.1403,0.1447,0.1478,0.151,0.1551,0.1585,0.1654,0.1674,0.1675,0.1773,0.1811,0.1873,0.188,0.1903,0.1914,0.1909,0.1943,0.1946,0.1948,0.1959,0.1963,0.1918,0.1918,0.1918,0.1918,0,0.1353,0.1398,0.1424,0.1489,0.1523,0.1566,0.161,0.1639,0.166,0.1692,0.1746,0.1793,0.1847,0.1863,0.1885,0.1927,0.1926,0.1935,0.1937,0.195,0.196,0.1965,0.1916,0.1917,0.1917,0.1917,0,0,0.1363,0.1446,0.1455,0.1484,0.1548,0.1583,0.1625,0.1679,0.1702,0.1747,0.1783,0.1847,0.1854,0.1887,0.1912,0.1936,0.1957,0.1941,0.1943,0.1942,0.2004,0.1997,0.2002,0.1968,0.1969,0.197,0.1999,0,0.1394,0.1472,0.1506,0.1568,0.161,0.1638,0.1675,0.1717,0.1747,0.1785,0.1818,0.1863,0.1869,0.1889,0.1913,0.1949,0.197,0.1947,0.2001,0.2002,0.1987,0.2008,0.2002,0.2028,0.2004,0.2004,0.2005,0,0.1442,0.1487,0.1552,0.1608,0.1627,0.1659,0.1709,0.1746,0.1793,0.1813,0.1847,0.1871,0.1915,0.1912,0.1972,0.1955,0.1979,0.1999,0.2001,0.2008,0.2005,0.2015,0.2037,0.2041,0.2012,0.2012,0.2011,0,0.1442,0.1518,0.1567,0.1591,0.1657,0.1679,0.1707,0.1754,0.1783,0.1826,0.1844,0.1892,0.1918,0.1953,0.1988,0.1983,0.2044,0.2045,0.2061,0.206,0.2074,0.2072,0.2099,0.2088,0.2087,0.2087,0.2087,0,0.1474,0.1513,0.1567,0.1597,0.1641,0.1679,0.172,0.1751,0.1791,0.1826,0.1853,0.1886,0.193,0.1967,0.1994,0.2038,0.205,0.2066,0.2073,0.2064,0.2062,0.2081,0.208,0.2088,0.2088,0.2088,0.2088,0,0.1482,0.1521,0.1575,0.1633,0.1648,0.1677,0.1726,0.1755,0.1785,0.1829,0.1841,0.1888,0.1933,0.1971,0.203,0.2048,0.2094,0.2102,0.2078,0.2082,0.2096,0.2094,0.2136,0.2143,0.2126,0.2126,0.2126,0,0.1501,0.1531,0.1591,0.1616,0.1644,0.1685,0.1714,0.1751,0.178,0.1834,0.1856,0.1903,0.1942,0.2012,0.2051,0.2095,0.2105,0.2116,0.2112,0.2101,0.2104,0.2102,0.2105,0.2117,0.2117,0.2117,0.2117,0,0.1529,0.1545,0.1586,0.1633,0.1667,0.1705,0.1745,0.1763,0.1807,0.1838,0.1884,0.1914,0.1974,0.2019,0.2067,0.2095,0.2113,0.2117,0.2124,0.2115,0.21,0.2108,0.2079,0.2117,0.2117,0.2117,0.2117,0.2117,0.1543,0.157,0.1616,0.166,0.1693,0.1728,0.1758,0.179,0.1829,0.1881,0.1899,0.1946,0.1989,0.2055,0.2083,0.2119,0.2122,0.213,0.2133,0.2134,0.2133,0.2093,0.2128,0.2128,0.2128,0.2128,0.2128,0,0.1572,0.1602,0.1642,0.1695,0.1729,0.1742,0.1785,0.1812,0.1853,0.1891,0.1929,0.198,0.2023,0.2064,0.2109,0.213,0.2139,0.214,0.2139,0.2145,0.2128,0.2119,0.2132,0.2132,0.2132,0.2132,0.2132,0.2132,0.1591,0.1638,0.1659,0.1721,0.1751,0.1796,0.182,0.1851,0.1882,0.1938,0.1974,0.2,0.2039,0.2086,0.2126,0.2137,0.2152,0.2151,0.2164,0.2147,0.2147,0.2146,0.2137,0.2154,0.2154,0.2178,0.2178,0.2178]}]]